Location: Newark
(44.3681°N, 100.3364°W)
Time: 12:39:50
(UTC+00:00)

Vanguard 1 - Pass Details

Date: 26 February 2020
Orbit: 649 x 3833 km, 34.2° (Epoch: 09 April)

Event Time Altitude Azimuth Distance (km) Brightness Sun altitude
Rises 16:11:51 0° 260° (W) 7,952 14.4 25.5°
Reaches altitude 10° 16:17:38 10° 257° (WSW) 6,791 14.1 26.2°
Maximum altitude 16:38:08 59° 186° (S) 3,052 13.4 28.6°
Drops below altitude 10° 16:50:09 10° 111° (ESE) 4,213 14.3 30.0°
Sets 16:52:50 0° 107° (ESE) 4,879 14.4 30.2°
